When you browse on this site, cookies collect data to enhance your experience and personalize the content and advertising you see.
Visit our Privacy Policy to learn more. By continuing to use the site, you agree to this use of cookies and data.
  • en Suisse
  • Liste des pays
  • À 7 jours
  • Température de l'eau
  • Carte satellitaire
  • Carte météo
  • Widgets météo
  • user-avatar
    Se connecter

    Météo par heure à Kamarang

    Ce jour, 17 Juillet, Mercredi

    Heure Température Précipitation Vent Pression Humidité
    00:00 +20°C° 0.1 mm 0 m/s 714 mmHg 99%
    01:00 +20°C° 0.1 mm 0 m/s 713 mmHg 99%
    02:00 +20°C° 0.1 mm 0 m/s 713 mmHg 99%
    03:00 +20°C° 0 mm 0 m/s 713 mmHg 99%
    04:00 +20°C° 0 mm 0 m/s 713 mmHg 99%
    05:00 +20°C° 0 mm 0 m/s 713 mmHg 99%
    06:00 +20°C° 0 mm 0 m/s 713 mmHg 97%
    07:00 +21°C° 0 mm 0 m/s 714 mmHg 96%
    08:00 +22°C° 0 mm 0 m/s 714 mmHg 94%
    09:00 +26°C° 0.3 mm 1 m/s 714 mmHg 85%
    10:00 +28°C° 0.3 mm 1 m/s 714 mmHg 76%
    11:00 +30°C° 0.3 mm 1 m/s 715 mmHg 67%
    12:00 +30°C° 0.5 mm 1 m/s 714 mmHg 64%
    13:00 +31°C° 0.5 mm 1 m/s 713 mmHg 62%
    14:00 +31°C° 0.5 mm 1 m/s 712 mmHg 60%
    15:00 +30°C° 0.9 mm 1 m/s 712 mmHg 71%
    16:00 +29°C° 0.9 mm 1 m/s 712 mmHg 81%
    17:00 +27°C° 0.9 mm 1 m/s 712 mmHg 92%
    18:00 +26°C° 1.4 mm 1 m/s 712 mmHg 93%
    19:00 +23°C° 1.4 mm 0 m/s 713 mmHg 95%
    20:00 +21°C° 1.4 mm 0 m/s 713 mmHg 96%
    21:00 +21°C° 0.1 mm 0 m/s 713 mmHg 97%
    22:00 +21°C° 0.1 mm 0 m/s 714 mmHg 97%
    23:00 +20°C° 0.1 mm 0 m/s 714 mmHg 98%

    Demain, 18 Juillet, Jeudi

    Heure Température Précipitation Vent Pression Humidité
    00:00 +20°C° 0 mm 0 m/s 714 mmHg 98%
    01:00 +20°C° 0 mm 0 m/s 713 mmHg 98%
    02:00 +19°C° 0 mm 0 m/s 713 mmHg 98%
    03:00 +19°C° 0 mm 0 m/s 713 mmHg 99%
    04:00 +19°C° 0 mm 0 m/s 713 mmHg 99%
    05:00 +19°C° 0 mm 0 m/s 713 mmHg 99%
    06:00 +20°C° 0.1 mm 0 m/s 714 mmHg 97%
    07:00 +21°C° 0.1 mm 0 m/s 714 mmHg 96%
    08:00 +22°C° 0.1 mm 0 m/s 715 mmHg 94%
    09:00 +24°C° 0.1 mm 0 m/s 715 mmHg 85%
    10:00 +26°C° 0.1 mm 0 m/s 715 mmHg 77%
    11:00 +30°C° 0.1 mm 1 m/s 715 mmHg 68%
    12:00 +29°C° 0.9 mm 1 m/s 714 mmHg 72%
    13:00 +29°C° 0.9 mm 1 m/s 713 mmHg 77%
    14:00 +29°C° 0.9 mm 1 m/s 713 mmHg 81%
    15:00 +28°C° 0.8 mm 1 m/s 712 mmHg 85%
    16:00 +27°C° 0.8 mm 1 m/s 712 mmHg 88%
    17:00 +27°C° 0.8 mm 1 m/s 712 mmHg 91%
    18:00 +24°C° 0.7 mm 0 m/s 712 mmHg 94%
    19:00 +22°C° 0.7 mm 0 m/s 713 mmHg 96%
    20:00 +21°C° 0.7 mm 0 m/s 713 mmHg 98%
    21:00 +21°C° 0.1 mm 0 m/s 714 mmHg 98%
    22:00 +20°C° 0.1 mm 0 m/s 714 mmHg 98%
    23:00 +20°C° 0.1 mm 0 m/s 714 mmHg 98%

    Après-demain, 19 Juillet, Vendredi

    Heure Température Précipitation Vent Pression Humidité
    00:00 +20°C° 0.5 mm 0 m/s 714 mmHg 99%
    01:00 +20°C° 0.5 mm 0 m/s 713 mmHg 99%
    02:00 +20°C° 0.5 mm 0 m/s 713 mmHg 99%
    03:00 +20°C° 0.1 mm 0 m/s 713 mmHg 99%
    04:00 +20°C° 0.1 mm 0 m/s 713 mmHg 99%
    05:00 +20°C° 0.1 mm 0 m/s 713 mmHg 99%
    06:00 +20°C° 0 mm 0 m/s 713 mmHg 97%
    07:00 +21°C° 0 mm 0 m/s 714 mmHg 96%
    08:00 +22°C° 0 mm 0 m/s 715 mmHg 94%
    09:00 +24°C° 0 mm 0 m/s 715 mmHg 82%
    10:00 +26°C° 0 mm 0 m/s 715 mmHg 71%
    11:00 +30°C° 0 mm 1 m/s 715 mmHg 59%
    12:00 +31°C° 0.2 mm 1 m/s 714 mmHg 57%
    13:00 +31°C° 0.2 mm 1 m/s 713 mmHg 56%
    14:00 +31°C° 0.2 mm 2 m/s 712 mmHg 54%
    15:00 +30°C° 0.2 mm 2 m/s 712 mmHg 58%
    16:00 +30°C° 0.2 mm 2 m/s 711 mmHg 63%
    17:00 +29°C° 0.2 mm 2 m/s 711 mmHg 68%
    18:00 +27°C° 0.1 mm 1 m/s 712 mmHg 76%
    19:00 +25°C° 0.1 mm 1 m/s 712 mmHg 85%
    20:00 +21°C° 0.1 mm 0 m/s 713 mmHg 94%
    21:00 +21°C° 0.1 mm 0 m/s 713 mmHg 95%
    22:00 +20°C° 0.1 mm 0 m/s 713 mmHg 96%
    23:00 +20°C° 0.1 mm 0 m/s 714 mmHg 98%

    20 Juillet, Samedi

    Heure Température Précipitation Vent Pression Humidité
    00:00 +20°C° 0.1 mm 0 m/s 713 mmHg 98%
    01:00 +20°C° 0.1 mm 0 m/s 713 mmHg 99%
    02:00 +19°C° 0.1 mm 0 m/s 712 mmHg 99%
    03:00 +20°C° 0 mm 0 m/s 712 mmHg 99%
    04:00 +20°C° 0 mm 0 m/s 712 mmHg 99%
    05:00 +20°C° 0 mm 0 m/s 712 mmHg 99%
    06:00 +21°C° 0 mm 0 m/s 713 mmHg 96%
    07:00 +21°C° 0 mm 0 m/s 713 mmHg 92%
    08:00 +22°C° 0 mm 0 m/s 714 mmHg 89%
    09:00 +24°C° 0.1 mm 0 m/s 714 mmHg 82%
    10:00 +25°C° 0.1 mm 0 m/s 714 mmHg 74%
    11:00 +29°C° 0.1 mm 1 m/s 714 mmHg 67%
    12:00 +29°C° 0.9 mm 1 m/s 713 mmHg 72%
    13:00 +28°C° 0.9 mm 1 m/s 712 mmHg 78%
    14:00 +28°C° 0.9 mm 1 m/s 711 mmHg 83%
    15:00 +27°C° 1.6 mm 1 m/s 711 mmHg 87%
    16:00 +27°C° 1.6 mm 1 m/s 711 mmHg 90%
    17:00 +26°C° 1.6 mm 1 m/s 710 mmHg 94%
    18:00 +25°C° 0.7 mm 1 m/s 711 mmHg 95%
    19:00 +22°C° 0.7 mm 0 m/s 711 mmHg 97%
    20:00 +21°C° 0.7 mm 0 m/s 712 mmHg 98%
    21:00 +21°C° 0.1 mm 0 m/s 712 mmHg 98%
    22:00 +20°C° 0.1 mm 0 m/s 712 mmHg 99%
    23:00 +20°C° 0.1 mm 0 m/s 713 mmHg 99%

    21 Juillet, Dimanche

    Heure Température Précipitation Vent Pression Humidité
    00:00 +20°C° 0.1 mm 0 m/s 712 mmHg 99%
    01:00 +20°C° 0.1 mm 0 m/s 712 mmHg 99%
    02:00 +20°C° 0.1 mm 0 m/s 711 mmHg 99%
    03:00 +20°C° 0.2 mm 0 m/s 711 mmHg 99%
    04:00 +20°C° 0.2 mm 0 m/s 711 mmHg 99%
    05:00 +20°C° 0.2 mm 0 m/s 711 mmHg 99%
    06:00 +20°C° 0 mm 0 m/s 712 mmHg 98%
    07:00 +21°C° 0 mm 0 m/s 713 mmHg 97%
    08:00 +22°C° 0 mm 0 m/s 713 mmHg 96%
    09:00 +23°C° 0.5 mm 0 m/s 713 mmHg 89%
    10:00 +25°C° 0.5 mm 0 m/s 713 mmHg 83%
    11:00 +26°C° 0.5 mm 0 m/s 713 mmHg 77%
    12:00 +29°C° 0.7 mm 1 m/s 712 mmHg 75%
    13:00 +29°C° 0.7 mm 1 m/s 712 mmHg 74%
    14:00 +30°C° 0.7 mm 1 m/s 711 mmHg 73%
    15:00 +29°C° 1.3 mm 1 m/s 711 mmHg 80%
    16:00 +28°C° 1.3 mm 1 m/s 711 mmHg 86%
    17:00 +27°C° 1.3 mm 1 m/s 710 mmHg 93%
    18:00 +26°C° 1.4 mm 1 m/s 711 mmHg 95%
    19:00 +24°C° 1.4 mm 1 m/s 711 mmHg 96%
    20:00 +23°C° 1.4 mm 1 m/s 712 mmHg 98%
    21:00 +21°C° 0.1 mm 0 m/s 712 mmHg 98%
    22:00 +21°C° 0.1 mm 0 m/s 712 mmHg 98%
    23:00 +20°C° 0.1 mm 0 m/s 713 mmHg 99%

    22 Juillet, Lundi

    Heure Température Précipitation Vent Pression Humidité
    00:00 +20°C° 0 mm 0 m/s 712 mmHg 99%
    01:00 +20°C° 0 mm 0 m/s 712 mmHg 99%
    02:00 +20°C° 0 mm 0 m/s 712 mmHg 99%
    03:00 +20°C° 0 mm 0 m/s 712 mmHg 99%
    04:00 +20°C° 0 mm 0 m/s 712 mmHg 99%
    05:00 +20°C° 0 mm 0 m/s 712 mmHg 99%
    06:00 +20°C° 0 mm 0 m/s 712 mmHg 98%
    07:00 +21°C° 0 mm 0 m/s 713 mmHg 97%
    08:00 +22°C° 0 mm 0 m/s 713 mmHg 97%
    09:00 +23°C° 0.7 mm 0 m/s 714 mmHg 92%
    10:00 +24°C° 0.7 mm 0 m/s 714 mmHg 87%
    11:00 +28°C° 0.7 mm 1 m/s 714 mmHg 82%
    12:00 +27°C° 1.6 mm 1 m/s 713 mmHg 86%
    13:00 +27°C° 1.6 mm 1 m/s 712 mmHg 89%
    14:00 +27°C° 1.6 mm 1 m/s 712 mmHg 93%
    15:00 +26°C° 1.4 mm 1 m/s 712 mmHg 94%
    16:00 +25°C° 1.4 mm 1 m/s 712 mmHg 95%
    17:00 +25°C° 1.4 mm 1 m/s 711 mmHg 96%
    18:00 +24°C° 0.5 mm 1 m/s 712 mmHg 97%
    19:00 +24°C° 0.5 mm 1 m/s 712 mmHg 98%
    20:00 +21°C° 0.5 mm 0 m/s 713 mmHg 99%
    21:00 +21°C° 0 mm 0 m/s 713 mmHg 99%
    22:00 +20°C° 0 mm 0 m/s 713 mmHg 99%
    23:00 +20°C° 0 mm 0 m/s 713 mmHg 99%
    Voir plus